Flag for Italy Weather past 2 weeks in Ancona, Italy

Now
68 °F

Clear.


Feels Like: 68 °F
Forecast: 65 / 78 °F
Wind: 2 mph from North

Location: Falconara

Current Time: Aug 28, 2014 at 2:15:47 AM

Latest Report: Aug 28, 2014 at 12:50 AM


Visibility: 10 mi

Pressure: 29.89 "Hg

Humidity: 88%

Dew point: 64 °F

Location of AnconaLocation

Historic Weather in Ancona — Graph

°F

Ancona temperature yesterday

Maximum temperature yesterday: 86 °F (at 4:50 PM)
Minimum temperature yesterday: 70 °F (at 3:50 AM)
Average temperature yesterday: 77 °F

Past Weeks' High & Low Weather Summary

 TemperatureHumidityPressure
High95 °F (Aug 13, 4:50 PM)100% (Aug 21, 10:50 PM)30.07 "Hg (Aug 21, 10:50 PM)
Low55 °F (Aug 18, 5:50 AM)28% (Aug 15, 6:50 PM)29.71 "Hg (Aug 13, 4:50 AM)
Average73 °F69%29.91 "Hg
* Reported Aug 13 12:50 AM — Aug 28 12:50 AM, Ancona, Weather by CustomWeather, © 2014

Note: Actual official high and low records may vary slightly from our data, if they occured in-between our weather recording intervals... More about our weather records

Advertising

Ancona weather history for previous 24 hours

 ConditionsComfort  
Time TempWeatherWind HumidityBarometerVisibility
12:50 AM
Aug 28
68 °FClear.2 mph88%29.89 "Hg10 mi
11:50 PM
Aug 27
70 °FClear.5 mph78%29.89 "Hg10 mi
10:50 PM73 °FClear.5 mph69%29.86 "Hg10 mi
9:50 PM73 °FClear.2 mph74%29.86 "Hg10 mi
8:50 PM75 °FPassing clouds.2 mph74%29.86 "HgN/A
7:50 PM81 °FPassing clouds.2 mph58%29.83 "HgN/A
6:50 PM82 °FPassing clouds.9 mph62%29.80 "HgN/A
5:50 PM86 °FPassing clouds.12 mph46%29.80 "HgN/A
4:50 PM86 °FPassing clouds.10 mph52%29.80 "HgN/A
3:50 PM84 °FScattered clouds.10 mph51%29.80 "HgN/A
2:50 PM81 °FScattered clouds.13 mph62%29.83 "HgN/A
1:50 PM82 °FScattered clouds.14 mph58%29.83 "HgN/A
12:50 PM82 °FPassing clouds.18 mph55%29.83 "HgN/A
11:50 AM82 °FPassing clouds.13 mph51%29.83 "HgN/A
10:50 AM81 °FPassing clouds.6 mph51%29.86 "HgN/A
9:50 AM77 °FPassing clouds.10 mph57%29.83 "HgN/A
8:50 AM75 °FPassing clouds.8 mph61%29.83 "HgN/A
7:50 AM73 °FPassing clouds.10 mph65%29.83 "HgN/A
6:50 AM72 °FPassing clouds.7 mph69%29.83 "HgN/A
5:50 AM72 °FPassing clouds.3 mph69%29.83 "HgN/A
4:50 AM72 °FPassing clouds.1 mph69%29.80 "HgN/A
3:50 AM70 °FClear.No wind78%29.83 "Hg10 mi
2:50 AM72 °FClear.2 mph69%29.83 "Hg10 mi
Weather by CustomWeather, © 2014

See weather overviewHow to use our weather pages